Flag for Canada Weather past 2 weeks in Hamilton, Ontario, Canada

Now
63 °F

Passing clouds.


Feels Like: 63 °F
Forecast: N/A
Wind: 13 mph from Northwest

Location: Hamilton Airport

Current Time: Oct 23, 2014 at 5:26:23 PM

Latest Report: Oct 23, 2014 at 4:00 PM


Visibility: 15 mi

Pressure: 30.08 "Hg

Humidity: 45%

Dew point: 41 °F

Location of HamiltonLocation

Historic Weather in Hamilton — Graph

°F

Hamilton temperature yesterday

Maximum temperature yesterday: 55 °F (at 4:00 PM)
Minimum temperature yesterday: 41 °F (at 12:00 AM)
Average temperature yesterday: 45 °F

Past Weeks' High & Low Weather Summary

 TemperatureHumidityPressure
High72 °F (Oct 14, 11:00 AM)100% (Oct 11, 8:00 AM)30.29 "Hg (Oct 11, 8:00 AM)
Low32 °F (Oct 11, 7:00 AM)39% (Oct 11, 4:00 PM)29.51 "Hg (Oct 17, 6:00 PM)
Average50 °F80%29.95 "Hg
* Reported Oct 8 4:00 PM — Oct 23 4:00 PM, Hamilton, Weather by CustomWeather, © 2014

Note: Actual official high and low records may vary slightly from our data, if they occured in-between our weather recording intervals... More about our weather records

Advertising

Hamilton weather history for previous 24 hours

 ConditionsComfort  
Time TempWeatherWind HumidityBarometerVisibility
4:00 PM
Oct 23
63 °FPassing clouds.13 mph45%30.08 "Hg15 mi
3:00 PM63 °FPassing clouds.7 mph49%30.09 "Hg15 mi
2:00 PM61 °FPassing clouds.6 mph48%30.11 "Hg15 mi
1:00 PM59 °FSunny.8 mph51%30.13 "Hg15 mi
12:00 PM57 °FSunny.7 mph59%30.15 "Hg15 mi
11:00 AM54 °FSunny.8 mph58%30.17 "Hg15 mi
10:00 AM50 °FSunny.5 mph67%30.19 "Hg15 mi
9:00 AM46 °FSunny.9 mph76%30.19 "Hg15 mi
8:00 AM41 °FPassing clouds.7 mph87%30.19 "Hg15 mi
7:00 AM43 °FPassing clouds.8 mph87%30.20 "Hg15 mi
6:00 AM41 °FClear.8 mph87%30.20 "Hg15 mi
5:00 AM41 °FClear.7 mph87%30.20 "Hg15 mi
4:00 AM41 °FClear.6 mph87%30.19 "Hg15 mi
3:00 AM41 °FClear.6 mph87%30.20 "Hg15 mi
2:00 AM43 °FClear.7 mph87%30.20 "Hg15 mi
1:00 AM45 °FPassing clouds.9 mph81%30.21 "Hg15 mi
12:00 AM46 °FPassing clouds.8 mph76%30.24 "Hg15 mi
11:00 PM
Oct 22
48 °FPassing clouds.9 mph71%30.24 "Hg15 mi
10:00 PM48 °FOvercast.9 mph66%30.24 "Hg15 mi
9:00 PM45 °FPassing clouds.6 mph76%30.25 "Hg15 mi
8:00 PM45 °FPassing clouds.6 mph81%30.24 "Hg15 mi
7:00 PM46 °FPassing clouds.3 mph76%30.25 "Hg15 mi
6:00 PM50 °FPartly sunny.9 mph67%30.24 "Hg15 mi
5:00 PM54 °FPartly sunny.8 mph63%30.23 "Hg10 mi
Weather by CustomWeather, © 2014

See weather overviewHow to use our weather pages